Location: Poughquag
(41.6090°N, 73.6820°W)
Time: 11:19:01
(UTC-05:00)

Tiangong 2 - Visible Passes

Search period start: 21 January 2018 00:00
Search period end: 31 January 2018 00:00
Orbit: 384 x 390 km, 42.8° (Epoch: 20 January)

Date Brightness Start Highest point End Pass type
(mag) Time Alt. Az. Time Alt. Az. Time Alt. Az.
21 Jan 1.1 05:29:10 73° SSE 05:29:11 73° SSE 05:32:22 10° E visible
22 Jan 4.6 04:33:17 12° E 04:33:17 12° E 04:33:36 10° E visible
22 Jan 1.1 06:05:34 25° W 06:07:17 71° N 06:10:28 10° E visible
23 Jan 2.5 05:09:37 38° ENE 05:09:37 38° ENE 05:11:43 10° ENE visible
24 Jan 1.1 05:45:54 46° WNW 05:46:39 68° N 05:49:50 10° E visible
25 Jan 3.7 04:49:52 20° ENE 04:49:52 20° ENE 04:51:03 10° E visible
25 Jan 1.1 06:22:08 14° WNW 06:24:45 86° S 06:27:57 10° ESE visible
26 Jan 1.1 05:26:07 74° NE 05:26:07 74° NE 05:29:11 10° E visible
27 Jan 4.6 04:30:05 12° E 04:30:05 12° E 04:30:22 10° E visible
27 Jan 1.3 06:02:21 24° W 06:04:01 59° SSW 06:07:09 10° ESE visible
28 Jan 2.5 05:06:21 38° ESE 05:06:21 38° ESE 05:08:28 10° ESE visible
28 Jan 2.8 06:39:13 10° W 06:41:49 23° SSW 06:44:25 10° SSE visible
29 Jan 1.9 05:42:38 34° SW 05:43:11 37° SSW 05:46:09 10° SE visible
30 Jan 3.9 04:46:43 17° SE 04:46:43 17° SE 04:47:37 10° ESE visible
30 Jan 3.4 06:19:12 10° WSW 06:20:50 13° SW 06:22:28 10° S visible
